Tracking 22124 objects as of 25-Jan-2021
HD Live streaming from Space Station
objects crossing your sky now

GSTAR 4

Track GSTAR 4 now!
GSTAR 4 is classified as:


NORAD ID: 20946
Int'l Code: 1990-100B
Perigee: 36,066.3 km
Apogee: 36,159.0 km
Inclination: 12.9 °
Period: 1,452.4 minutes
Semi major axis: 42483 km
RCS: 8.7599 m2 (large)
Launch date: November 20, 1990
Source: United States (US)
Launch site: FRENCH GUIANA (FRGUI)
aabbcc
Your satellite tracking list
Your tracking list is empty




NASA's NSSDC Master Catalog

Two Line Element Set (TLE):
1 20946U 90100B   21024.66963384 -.00000021  00000-0  00000-0 0  9999
2 20946  12.9333  24.0904 0010914 317.9684 225.2724  0.99144763 27282
Source of the keplerian elements: AFSPC